Regional Weather Roundup
Issued by NWS Midland/Odessa, TX

Home | Current Version | Previous Version | Text Only | Print | Product List | Glossary On
Versions: 1 2 3 4 5 6 7 8 9 10 11 12 13 14 15 16 17 18 19 20 21 22 23 24 25 26 27 28 29 30 31 32 33 34 35 36 37 38 39 40 41 42 43 44 45 46 47 48 49 50
000
ASUS44 KMAF 210410
RWRMAF
MIDLAND AREA WEATHER ROUNDUP
NATIONAL WEATHER SERVICE MIDLAND TX
1100 PM CDT FRI OCT 20 2017

...IN SOUTHWEST TEXAS AND SOUTHEAST NEW MEXICO...

CITY           SKY/WX    TMP DP  RH WIND       PRES   REMARKS
ALPINE         CLEAR     64  50  59 SW3       30.04R
ANDREWS        FAIR      64  59  83 S13       29.89S
ARTESIA        CLEAR     63  52  67 SW9       29.84S
BIG SPRING     CLEAR     66  59  78 S12G17    29.92R
CARLSBAD       CLEAR     63  59  87 S8        29.83R
DRYDEN           N/A     68  63  84 E7        29.90S
FORT STOCKTON  CLEAR     67  61  81 S18       29.89S
GUAD PASS      CLEAR     66  40  38 SW16      29.98S
HOBBS          CLEAR     64  59  82 S15       29.88S
LAMESA         FAIR      64  59  82 S18       29.90S
MARFA          MOCLDY    63  46  54 VRB6      30.02R
MIDLAND AIRPK  CLEAR     68  60  75 S15       29.90S
MIDLAND INTL   CLEAR     68  60  75 S16       29.90S
ODESSA         NOT AVBL
PECOS          CLEAR     66  56  70 E5        29.84S
PRESIDIO       FAIR      77  44  30 NE6       29.89R
SEMINOLE       CLEAR     64  58  78 S14G20    29.89S
SNYDER         CLEAR     67  59  75 S8        29.91R
WINK           CLEAR     67  61  81 SE14      29.85R
$$
...OTHER STATIONS IN TEXAS...

CITY           SKY/WX    TMP DP  RH WIND       PRES   REMARKS
ABILENE        CLEAR     69  61  75 S13       29.90R
AMARILLO       CLEAR     66  57  72 S25G35    29.80S
AUSTIN         PTCLDY    73  70  90 SE9       29.94S
BROWNSVILLE    CLEAR     77  73  87 E6        29.91S
CORPUS CHRISTI PTCLDY    74  71  91 E7        29.92R
DALLAS FTW     MOCLDY    73  67  81 S20       29.91S
DEL RIO        CLEAR     71  66  84 SE7       29.90S
EL PASO        PTCLDY    76  38  25 SW12      29.87R
HOUSTON INT    MOCLDY    73  73 100 E6        29.98R
LUBBOCK        PTCLDY    67  58  72 S16G28    29.86S
SAN ANGELO     CLEAR     67  58  72 SW7       29.92R
SAN ANTONIO    PTCLDY    70  65  84 E5        29.95R
WACO           CLOUDY    74  68  81 SE15      29.94F
WICHITA FALLS  MOCLDY    71  62  73 S24G35    29.78R
$$
...OTHER LOCATIONS IN NEW MEXICO...

CITY           SKY/WX    TMP DP  RH WIND       PRES   REMARKS
ALAMOGORDO     CLEAR     68  41  37 S12       29.86S
ALBUQUERQUE    MOCLDY    64  32  30 S14       29.83R
CANNON AFB     CLEAR     60  53  77 S10       29.84F
CLOVIS         CLEAR     60  54  80 S14       29.85S
HOLLOMAN AFB   CLEAR     62  47  57 S10       29.85F
ROSWELL        CLEAR     60  47  61 SW9       29.82S
RUIDOSO        CLEAR     57  37  47 SE9       29.99S
SANTA FE       CLEAR     53  40  61 CALM      29.86R
TRUTH OR CONSE PTCLDY    67  37  33 SW9       29.85S
TUCUMCARI      CLEAR     64  46  52 SW13      29.74S
$$



USA.gov is the U.S. government's official web portal to all federal, state and local government web resources and services.